ITY125 LJLJ-EDDC

Flight info

Callsign ITY125
Flight time N/A
Altitude 37000
Route MODRO DCT SITNI DCT DITIS DCT VOZ DCT DEKOV Y621 ESLOR M748 OSKAN OSKAN4A
Aircraft A319/M-SDE3FGHIRWY/LB1

Departure

Time 2026-04-20 12:54
Airport Ljubljana Jože Pučnik Airport (LJLJ)

Arrival

Time N/A
Airport Dresden Airport (EDDC)
Time Latitude Longitude Altitude Speed Heading
2026-04-20 12:45 46.23028 14.45426 1267 ft 0 kts 36°
2026-04-20 12:49 46.23027 14.45426 1267 ft 0 kts 36°
2026-04-20 12:49 46.23017 14.45415 1267 ft 2 kts 36°
2026-04-20 12:49 46.23005 14.45402 1266 ft 2 kts 36°
2026-04-20 12:50 46.22993 14.45389 1265 ft 2 kts 36°
2026-04-20 12:50 46.22982 14.45378 1265 ft 1 kts 34°
2026-04-20 12:50 46.22977 14.45368 1264 ft 1 kts 95°
2026-04-20 12:50 46.22979 14.45359 1264 ft 0 kts 135°
2026-04-20 12:51 46.22984 14.45352 1265 ft 0 kts 130°
2026-04-20 12:51 46.22984 14.45353 1265 ft 0 kts 130°
2026-04-20 12:52 46.22963 14.45379 1263 ft 7 kts 157°
2026-04-20 12:52 46.22886 14.45365 1259 ft 15 kts 211°
2026-04-20 12:52 46.22775 14.45327 1254 ft 18 kts 172°
2026-04-20 12:52 46.22638 14.45364 1248 ft 21 kts 166°
2026-04-20 12:53 46.22556 14.45412 1246 ft 21 kts 140°
2026-04-20 12:54 46.22446 14.45617 1240 ft 50 kts 126°
2026-04-20 12:54 46.22092 14.46303 1223 ft 118 kts 126°
2026-04-20 12:54 46.21512 14.47469 1391 ft 153 kts 125°
2026-04-20 12:54 46.20907 14.48675 2029 ft 151 kts 124°
2026-04-20 12:55 46.20463 14.50020 2654 ft 151 kts 90°
2026-04-20 12:55 46.20822 14.51377 3217 ft 151 kts 45°
2026-04-20 12:55 46.21763 14.52037 3637 ft 161 kts
2026-04-20 12:55 46.22923 14.52192 4056 ft 177 kts
2026-04-20 12:56 46.24204 14.52392 4507 ft 194 kts
2026-04-20 12:56 46.25612 14.52621 4971 ft 212 kts
2026-04-20 12:56 46.27050 14.52857 5790 ft 208 kts
2026-04-20 12:56 46.28447 14.53093 6684 ft 199 kts
2026-04-20 12:57 46.29853 14.53327 7145 ft 213 kts
2026-04-20 12:57 46.31374 14.53573 7562 ft 229 kts
2026-04-20 12:57 46.33035 14.53839 7897 ft 251 kts
2026-04-20 12:57 46.34835 14.54134 8340 ft 269 kts
2026-04-20 12:58 46.36723 14.54444 8852 ft 281 kts
2026-04-20 12:58 46.38674 14.54773 9671 ft 284 kts
2026-04-20 12:58 46.40648 14.55106 10474 ft 288 kts
2026-04-20 12:58 46.42678 14.55441 10932 ft 304 kts
2026-04-20 12:59 46.44821 14.55791 11305 ft 321 kts
2026-04-20 12:59 46.47099 14.56164 11643 ft 339 kts
2026-04-20 12:59 46.49506 14.56563 12141 ft 351 kts
2026-04-20 12:59 46.51938 14.56974 12879 ft 355 kts
2026-04-20 13:00 46.54395 14.57390 13652 ft 357 kts
2026-04-20 13:00 46.56861 14.57804 14384 ft 360 kts
2026-04-20 13:00 46.59315 14.58216 15071 ft 362 kts
2026-04-20 13:00 46.61845 14.58641 15725 ft 366 kts
2026-04-20 13:01 46.64388 14.59067 16359 ft 370 kts
2026-04-20 13:01 46.66915 14.59492 17014 ft 372 kts
2026-04-20 13:01 46.69515 14.59928 17638 ft 375 kts
2026-04-20 13:01 46.72077 14.60357 18213 ft 378 kts
2026-04-20 13:02 46.74707 14.60798 18765 ft 382 kts 360°
2026-04-20 13:02 46.77361 14.61244 19348 ft 384 kts 360°
2026-04-20 13:02 46.79987 14.61687 19960 ft 386 kts 359°
2026-04-20 13:02 46.82668 14.62139 20487 ft 389 kts 359°
2026-04-20 13:03 46.85387 14.62598 21018 ft 392 kts 359°
2026-04-20 13:03 46.88059 14.63046 21555 ft 394 kts 359°
2026-04-20 13:03 46.90816 14.63516 22121 ft 396 kts 359°
2026-04-20 13:03 46.93559 14.63981 22638 ft 398 kts 359°
2026-04-20 13:04 46.96304 14.64444 23101 ft 402 kts 358°
2026-04-20 13:04 46.99091 14.64917 23591 ft 404 kts 358°
2026-04-20 13:04 47.01894 14.65402 24088 ft 405 kts 359°
2026-04-20 13:04 47.04670 14.65889 24476 ft 408 kts 359°
2026-04-20 13:05 47.07481 14.66380 24852 ft 411 kts 359°
2026-04-20 13:05 47.10351 14.66875 25316 ft 412 kts 359°
2026-04-20 13:05 47.13208 14.67368 25707 ft 414 kts 358°
2026-04-20 13:05 47.16071 14.67860 26066 ft 416 kts 358°
2026-04-20 13:06 47.18961 14.68357 26411 ft 418 kts 358°
2026-04-20 13:06 47.21861 14.68855 26689 ft 422 kts 358°
2026-04-20 13:06 47.24787 14.69355 27029 ft 424 kts 358°
2026-04-20 13:06 47.27714 14.69861 27362 ft 425 kts 358°
2026-04-20 13:07 47.30620 14.70357 27647 ft 428 kts 358°
2026-04-20 13:07 47.33595 14.70872 27965 ft 429 kts 358°
2026-04-20 13:07 47.36573 14.71386 28250 ft 431 kts 358°
2026-04-20 13:07 47.39514 14.71892 28527 ft 433 kts 358°
2026-04-20 13:08 47.42515 14.72411 28899 ft 431 kts 357°
2026-04-20 13:08 47.45490 14.72930 29337 ft 428 kts 358°
2026-04-20 13:08 47.48398 14.73437 29785 ft 424 kts 357°
2026-04-20 13:08 47.51298 14.73942 30196 ft 421 kts 357°
2026-04-20 13:09 47.54215 14.74451 30528 ft 421 kts 357°
2026-04-20 13:09 47.57111 14.74948 30845 ft 420 kts 357°
2026-04-20 13:09 47.60022 14.75450 31190 ft 419 kts 357°
2026-04-20 13:09 47.62896 14.75949 31493 ft 419 kts 357°
2026-04-20 13:10 47.65807 14.76455 31734 ft 420 kts 358°
2026-04-20 13:10 47.68692 14.76954 31998 ft 420 kts 358°
2026-04-20 13:10 47.71594 14.77459 32302 ft 420 kts 358°
2026-04-20 13:10 47.74485 14.77970 32585 ft 419 kts 358°
2026-04-20 13:11 47.77351 14.78469 32802 ft 420 kts 359°
2026-04-20 13:11 47.80260 14.78978 33037 ft 421 kts 359°
2026-04-20 13:11 47.83181 14.79492 33265 ft 422 kts 359°
2026-04-20 13:11 47.86089 14.80004 33479 ft 422 kts 359°
2026-04-20 13:12 47.88984 14.80516 33715 ft 422 kts 359°
2026-04-20 13:12 47.91904 14.81033 33892 ft 422 kts 359°
2026-04-20 13:12 47.94791 14.81546 34030 ft 424 kts 359°
2026-04-20 13:12 47.97735 14.82068 34195 ft 426 kts 360°
2026-04-20 13:13 48.00674 14.82587 34391 ft 427 kts 360°
2026-04-20 13:13 48.03636 14.83124 34594 ft 428 kts
2026-04-20 13:13 48.06575 14.83835 34811 ft 430 kts
2026-04-20 13:13 48.09468 14.84722 35021 ft 432 kts
2026-04-20 13:14 48.12421 14.85685 35222 ft 433 kts
2026-04-20 13:14 48.15330 14.86643 35381 ft 433 kts
2026-04-20 13:14 48.18296 14.87625 35572 ft 434 kts
2026-04-20 13:14 48.21223 14.88596 35720 ft 435 kts
2026-04-20 13:15 48.24167 14.89570 35861 ft 436 kts
2026-04-20 13:15 48.27122 14.90549 35977 ft 438 kts
2026-04-20 13:15 48.30117 14.91541 36082 ft 440 kts
2026-04-20 13:15 48.33105 14.92533 36198 ft 441 kts
2026-04-20 13:16 48.36105 14.93530 36326 ft 442 kts
2026-04-20 13:16 48.39057 14.94513 36442 ft 443 kts
2026-04-20 13:16 48.42099 14.95527 36551 ft 444 kts
2026-04-20 13:16 48.45106 14.96529 36652 ft 444 kts
2026-04-20 13:17 48.48085 14.97524 36760 ft 445 kts
2026-04-20 13:17 48.51122 14.98540 36865 ft 446 kts
2026-04-20 13:17 48.54163 14.99559 36960 ft 447 kts
2026-04-20 13:18 48.60223 15.01591 36968 ft 453 kts
2026-04-20 13:18 48.66420 15.03676 36973 ft 458 kts
2026-04-20 13:19 48.72618 15.05774 36972 ft 460 kts
2026-04-20 13:19 48.78878 15.07894 36973 ft 460 kts
2026-04-20 13:20 48.85123 15.09450 36978 ft 456 kts
2026-04-20 13:20 48.91423 15.09662 36965 ft 452 kts 353°
2026-04-20 13:21 48.97610 15.08543 36979 ft 450 kts 346°
2026-04-20 13:21 49.03677 15.06392 36983 ft 449 kts 342°
2026-04-20 13:22 49.09733 15.04072 36983 ft 449 kts 343°
2026-04-20 13:22 49.15782 15.01769 36979 ft 449 kts 343°
2026-04-20 13:23 49.21803 14.99484 36981 ft 449 kts 343°
2026-04-20 13:23 49.27853 14.97179 36979 ft 449 kts 343°
2026-04-20 13:24 49.33906 14.94863 36977 ft 449 kts 343°
2026-04-20 13:24 49.39938 14.92552 36983 ft 450 kts 343°
2026-04-20 13:25 49.45980 14.90232 36982 ft 450 kts 343°
2026-04-20 13:25 49.52032 14.87898 36982 ft 448 kts 343°
2026-04-20 13:26 49.57932 14.85251 36986 ft 439 kts 341°
2026-04-20 13:26 49.63744 14.82500 36767 ft 438 kts 341°
2026-04-20 13:26 49.66645 14.81128 36543 ft 437 kts 341°
2026-04-20 13:27 49.69562 14.79750 36319 ft 437 kts 341°
2026-04-20 13:27 49.72428 14.78396 36095 ft 437 kts 341°
2026-04-20 13:27 49.75326 14.77026 35872 ft 437 kts 341°
2026-04-20 13:27 49.78243 14.75645 35598 ft 437 kts 341°
2026-04-20 13:28 49.81118 14.74283 35197 ft 438 kts 341°
2026-04-20 13:28 49.84034 14.72899 34675 ft 439 kts 341°
2026-04-20 13:28 49.86946 14.71517 34079 ft 439 kts 341°
2026-04-20 13:28 49.89861 14.70134 33475 ft 439 kts 341°
2026-04-20 13:29 49.92754 14.68757 32863 ft 439 kts 341°
2026-04-20 13:29 49.95658 14.67374 32199 ft 440 kts 341°
2026-04-20 13:29 49.98581 14.65978 31530 ft 442 kts 341°
2026-04-20 13:29 50.01499 14.64582 30830 ft 444 kts 341°
2026-04-20 13:30 50.04469 14.63159 30087 ft 447 kts 342°
2026-04-20 13:30 50.07436 14.61739 29293 ft 449 kts 341°
2026-04-20 13:30 50.10412 14.60316 28470 ft 451 kts 341°
2026-04-20 13:30 50.13415 14.58883 27535 ft 452 kts 341°
2026-04-20 13:31 50.16401 14.57458 26592 ft 451 kts 341°
2026-04-20 13:31 50.19386 14.56025 25692 ft 447 kts 341°
2026-04-20 13:31 50.22286 14.54632 25101 ft 437 kts 342°
2026-04-20 13:31 50.25158 14.53246 24570 ft 426 kts 342°
2026-04-20 13:32 50.27943 14.51900 24018 ft 417 kts 342°
2026-04-20 13:32 50.30684 14.50576 23453 ft 409 kts 341°
2026-04-20 13:32 50.33369 14.49276 22880 ft 402 kts 342°
2026-04-20 13:32 50.35987 14.48001 22341 ft 396 kts 342°
2026-04-20 13:33 50.38583 14.46734 21812 ft 389 kts 343°
2026-04-20 13:33 50.41173 14.45473 21280 ft 384 kts 343°
2026-04-20 13:33 50.43671 14.44257 20771 ft 380 kts 343°
2026-04-20 13:33 50.46202 14.43033 20235 ft 376 kts 343°
2026-04-20 13:34 50.48676 14.41832 19696 ft 373 kts 343°
2026-04-20 13:34 50.51148 14.40626 19147 ft 371 kts 343°
2026-04-20 13:34 50.53580 14.39437 18625 ft 368 kts 343°
2026-04-20 13:34 50.56018 14.38237 18098 ft 366 kts 344°
2026-04-20 13:35 50.58419 14.37063 17567 ft 364 kts 345°
2026-04-20 13:35 50.60841 14.35877 17038 ft 363 kts 344°
2026-04-20 13:35 50.63241 14.34699 16505 ft 362 kts 343°
2026-04-20 13:35 50.65641 14.33510 15979 ft 361 kts 343°
2026-04-20 13:36 50.68031 14.32326 15440 ft 359 kts 343°
2026-04-20 13:36 50.70373 14.31168 14952 ft 356 kts 343°
2026-04-20 13:36 50.72746 14.29992 14453 ft 355 kts 343°
2026-04-20 13:36 50.75076 14.28841 13931 ft 353 kts 343°
2026-04-20 13:37 50.77392 14.27698 13430 ft 351 kts 343°
2026-04-20 13:37 50.79739 14.26543 12907 ft 349 kts 343°
2026-04-20 13:37 50.82012 14.25422 12401 ft 347 kts 343°
2026-04-20 13:37 50.84309 14.24287 11899 ft 344 kts 343°
2026-04-20 13:38 50.86592 14.23154 11381 ft 342 kts 343°
2026-04-20 13:38 50.88844 14.22128 10876 ft 338 kts 345°
2026-04-20 13:38 50.91112 14.21344 10625 ft 325 kts 349°
2026-04-20 13:38 50.93267 14.20807 10491 ft 310 kts 351°
2026-04-20 13:39 50.95381 14.20338 10323 ft 298 kts 352°
2026-04-20 13:39 50.97358 14.19911 10225 ft 283 kts 352°
2026-04-20 13:39 50.99271 14.19499 10138 ft 269 kts 352°
2026-04-20 13:39 51.01082 14.19104 10069 ft 257 kts 352°
2026-04-20 13:40 51.02834 14.18719 9967 ft 252 kts 352°
2026-04-20 13:40 51.04554 14.18344 9635 ft 251 kts 351°
2026-04-20 13:40 51.06289 14.17962 9328 ft 249 kts 352°
2026-04-20 13:40 51.07986 14.17609 9032 ft 247 kts 352°
2026-04-20 13:41 51.09698 14.17269 8727 ft 246 kts 352°
2026-04-20 13:41 51.11389 14.16937 8436 ft 244 kts 353°
2026-04-20 13:41 51.13051 14.16610 8154 ft 242 kts 353°
2026-04-20 13:41 51.14728 14.16281 7855 ft 241 kts 353°
2026-04-20 13:42 51.16394 14.15955 7575 ft 239 kts 353°
2026-04-20 13:42 51.19671 14.15309 7003 ft 236 kts 354°
2026-04-20 13:42 51.21286 14.14990 6719 ft 235 kts 353°
2026-04-20 13:43 51.22913 14.14668 6434 ft 234 kts 353°
2026-04-20 13:43 51.24515 14.14350 6155 ft 232 kts 353°
2026-04-20 13:43 51.26107 14.14037 5882 ft 231 kts 352°
2026-04-20 13:43 51.27694 14.13725 5623 ft 230 kts 352°
2026-04-20 13:44 51.29275 14.13405 5344 ft 229 kts 352°
2026-04-20 13:44 51.30845 14.12670 5070 ft 245 kts 331°
2026-04-20 13:44 51.32106 14.10786 4695 ft 254 kts 305°
2026-04-20 13:44 51.32667 14.08102 4251 ft 264 kts 277°
2026-04-20 13:45 51.32308 14.05231 3842 ft 273 kts 246°
2026-04-20 13:45 51.31166 14.02792 3499 ft 274 kts 236°
2026-04-20 13:45 51.30054 14.00334 3151 ft 271 kts 235°
2026-04-20 13:45 51.28820 13.98156 3099 ft 259 kts 228°
2026-04-20 13:46 51.27548 13.96239 3057 ft 246 kts 226°
2026-04-20 13:46 51.26279 13.94462 3017 ft 234 kts 225°
2026-04-20 13:46 51.25085 13.92832 2983 ft 221 kts 225°
2026-04-20 13:46 51.23947 13.91279 2966 ft 207 kts 225°
2026-04-20 13:47 51.22915 13.89868 2965 ft 188 kts 226°
2026-04-20 13:47 51.21951 13.88539 2766 ft 181 kts 226°
2026-04-20 13:47 51.21009 13.87237 2525 ft 174 kts 226°
2026-04-20 13:47 51.20147 13.86055 2296 ft 157 kts 227°
2026-04-20 13:48 51.19358 13.84972 2077 ft 141 kts 227°
2026-04-20 13:48 51.18644 13.83987 1847 ft 133 kts 228°
2026-04-20 13:48 51.17945 13.83016 1728 ft 132 kts 227°
2026-04-20 13:48 51.17255 13.82065 1553 ft 131 kts 225°
2026-04-20 13:49 51.16565 13.81116 1365 ft 130 kts 225°